Pine Bluff, AR

4:09 AM CDT on October 18, 2017 (GMT -0500)
Grider

Weather History for KPBF - March, 2014

Change the Weather History Date:

Tuesday, March 18, 2014

  Actual Average Record
Temperature  
Mean Temperature 49 °F 55 °F  
Max Temperature 66 °F 66 °F 89 °F (1908)
Min Temperature 31 °F 44 °F 12 °F (1892)
Degree Days  
Heating Degree Days 16 11  
Month to date heating degree days 337 233  
Since 1 July heating degree days 3106 2621  
Cooling Degree Days 0 1  
Month to date cooling degree days 0 3  
Year to date cooling degree days 0 6  
Moisture  
Dew Point 39 °F    
Average Humidity 72    
Maximum Humidity 100    
Minimum Humidity 44    
Precipitation  
Precipitation 0.00 in 0.17 in 5.75 in (1894)
Month to date precipitation 3.07 3.20  
Year to date precipitation 8.50 11.02  
Snow  
Snow 0.00 in 0.00 in T in (1951)
Month to date snowfall T 0.0  
Since 1 July snowfall 3.7 3.1  
Snow Depth 0.00 in    
Sea Level Pressure  
Sea Level Pressure 29.81 in    
Wind  
Wind Speed 11 mph (SSE)    
Max Wind Speed 24 mph    
Max Gust Speed 29 mph    
Visibility 9 miles    
Events      
T = Trace of Precipitation, MM = Missing Value Source: NWS Daily Summary

Daily Weather History Graph

Daily Weather History Graph

Search for Another Location

Airport or City:

Trip Planner

Search our weather history database for the weather conditions in past years. The results will help you decide how hot, cold, wet, or windy it might be!

Date:

Astronomy

Mar. 18, 2014 Rise Set
Actual Time 7:14 AM CDT 7:17 PM CDT
Civil Twilight 6:49 AM CDT 7:42 PM CDT
Nautical Twilight 6:20 AM CDT 8:12 PM CDT
Astronomical Twilight 5:50 AM CDT 8:41 PM CDT
Moon 9:28 PM CDT 8:09 AM CDT
Length of Visible Light 12h 53m
Length of Day
12h 03m
Waning Gibbous, 96% of the Moon is Illuminated
Mar 18
Waning Gibbous
Mar 23
Last Quarter
Mar 30
New
Apr 7
First Quarter
Apr 15
Full

Hourly Weather History & Observations

Time (CDT) Temp. Windchill Dew Point Humidity Pressure Visibility Wind Dir Wind Speed Gust Speed Precip Events Conditions
12:53 AM 35.1 °F 30.1 °F 33.1 °F 92% 29.86 in 7.0 mi South 5.8 mph - N/A   Clear
1:53 AM 35.1 °F 32.2 °F 32.0 °F 89% 29.86 in 7.0 mi SSW 3.5 mph - N/A   Clear
2:53 AM 33.1 °F 28.7 °F 32.0 °F 96% 29.84 in 6.0 mi South 4.6 mph - N/A   Clear
3:53 AM 34.0 °F - 32.0 °F 92% 29.85 in 6.0 mi Calm Calm - N/A   Clear
4:53 AM 33.1 °F 30.0 °F 30.9 °F 92% 29.83 in 6.0 mi South 3.5 mph - N/A   Clear
5:53 AM 30.9 °F 25.2 °F 30.0 °F 96% 29.84 in 5.0 mi South 5.8 mph - N/A   Clear
6:53 AM 32.0 °F 26.4 °F 30.0 °F 92% 29.85 in 6.0 mi South 5.8 mph - N/A   Clear
7:53 AM 35.1 °F 27.9 °F 32.0 °F 89% 29.87 in 9.0 mi South 9.2 mph - N/A   Clear
8:53 AM 39.0 °F 31.0 °F 35.1 °F 86% 29.89 in 10.0 mi SSW 13.8 mph - N/A   Clear
9:53 AM 43.0 °F 36.4 °F 37.9 °F 82% 29.88 in 10.0 mi South 12.7 mph - N/A   Clear
10:53 AM 48.0 °F - 39.0 °F 71% 29.87 in 10.0 mi SSE 12.7 mph - N/A   Clear
11:53 AM 54.0 °F - 41.0 °F 62% 29.84 in 10.0 mi ESE 12.7 mph - N/A   Clear
12:53 PM 55.9 °F - 43.0 °F 62% 29.81 in 10.0 mi ESE 16.1 mph - N/A   Clear
1:53 PM 57.9 °F - 45.0 °F 62% 29.78 in 10.0 mi SE 18.4 mph - N/A   Clear
2:53 PM 61.0 °F - 48.0 °F 62% 29.73 in 10.0 mi ESE 19.6 mph 26.5 mph N/A   Clear
3:53 PM 64.9 °F - 43.0 °F 45% 29.70 in 10.0 mi SSE 16.1 mph 26.5 mph N/A   Clear
4:53 PM 64.9 °F - 44.1 °F 47% 29.70 in 10.0 mi South 18.4 mph 24.2 mph N/A   Clear
5:53 PM 64.0 °F - 43.0 °F 46% 29.72 in 10.0 mi South 18.4 mph - N/A   Clear
6:53 PM 62.1 °F - 44.1 °F 52% 29.74 in 10.0 mi South 10.4 mph 23.0 mph N/A   Clear
7:53 PM 57.9 °F - 45.0 °F 62% 29.77 in 10.0 mi SSE 10.4 mph - N/A   Clear
8:53 PM 57.9 °F - 45.0 °F 62% 29.77 in 10.0 mi SSE 13.8 mph - N/A   Clear
9:53 PM 55.9 °F - 45.0 °F 67% 29.79 in 10.0 mi SSE 10.4 mph - N/A   Clear
10:53 PM 57.0 °F - 45.0 °F 64% 29.80 in 10.0 mi South 9.2 mph - N/A   Clear
11:53 PM 55.9 °F - 46.9 °F 72% 29.82 in 10.0 mi South 10.4 mph - N/A   Clear